• Em Portugal
  • Lista de países
  • Para 7 dias
  • Temperatura da água
  • Mapas de satélite
  • Mapa do tempo
  • Widgets de tempo
  • user-avatar
    Iniciar Sessão

    Previsão horária em Darna

    Hoje, 17 Agosto, Sexta-feira

    Tempo Temperatura Precipitação Vento Pressão Humidade
    00:00 +30°C° 0 mm 5 m/s 755 mmHg 63%
    01:00 +29°C° 0 mm 4 m/s 755 mmHg 65%
    02:00 +29°C° 0 mm 4 m/s 755 mmHg 67%
    03:00 +29°C° 0 mm 4 m/s 755 mmHg 69%
    04:00 +28°C° 0 mm 3 m/s 755 mmHg 71%
    05:00 +28°C° 0 mm 3 m/s 755 mmHg 73%
    06:00 +28°C° 0 mm 3 m/s 755 mmHg 70%
    07:00 +29°C° 0 mm 3 m/s 755 mmHg 66%
    08:00 +29°C° 0 mm 3 m/s 755 mmHg 63%
    09:00 +31°C° 0 mm 3 m/s 755 mmHg 55%
    10:00 +34°C° 0 mm 4 m/s 755 mmHg 47%
    11:00 +35°C° 0 mm 4 m/s 756 mmHg 39%
    12:00 +36°C° 0 mm 5 m/s 755 mmHg 38%
    13:00 +38°C° 0 mm 6 m/s 755 mmHg 36%
    14:00 +39°C° 0 mm 7 m/s 755 mmHg 35%
    15:00 +38°C° 0 mm 7 m/s 755 mmHg 37%
    16:00 +36°C° 0 mm 7 m/s 755 mmHg 40%
    17:00 +36°C° 0 mm 7 m/s 755 mmHg 42%
    18:00 +34°C° 0 mm 7 m/s 755 mmHg 49%
    19:00 +33°C° 0 mm 7 m/s 755 mmHg 55%
    20:00 +30°C° 0 mm 6 m/s 754 mmHg 61%
    21:00 +30°C° 0 mm 6 m/s 755 mmHg 63%
    22:00 +29°C° 0 mm 6 m/s 755 mmHg 66%
    23:00 +29°C° 0 mm 6 m/s 755 mmHg 68%

    Amanhã, 18 Agosto, Sábado

    Tempo Temperatura Precipitação Vento Pressão Humidade
    00:00 +29°C° 0 mm 6 m/s 755 mmHg 69%
    01:00 +28°C° 0 mm 6 m/s 755 mmHg 71%
    02:00 +28°C° 0 mm 6 m/s 755 mmHg 73%
    03:00 +28°C° 0 mm 5 m/s 754 mmHg 75%
    04:00 +27°C° 0 mm 5 m/s 754 mmHg 77%
    05:00 +27°C° 0 mm 5 m/s 754 mmHg 80%
    06:00 +27°C° 0 mm 6 m/s 754 mmHg 76%
    07:00 +28°C° 0 mm 6 m/s 755 mmHg 73%
    08:00 +29°C° 0 mm 6 m/s 755 mmHg 69%
    09:00 +30°C° 0 mm 6 m/s 755 mmHg 63%
    10:00 +32°C° 0 mm 6 m/s 755 mmHg 56%
    11:00 +34°C° 0 mm 6 m/s 755 mmHg 49%
    12:00 +34°C° 0 mm 7 m/s 755 mmHg 46%
    13:00 +35°C° 0 mm 7 m/s 755 mmHg 44%
    14:00 +35°C° 0 mm 7 m/s 754 mmHg 41%
    15:00 +35°C° 0 mm 8 m/s 754 mmHg 44%
    16:00 +34°C° 0 mm 8 m/s 754 mmHg 48%
    17:00 +33°C° 0 mm 8 m/s 754 mmHg 51%
    18:00 +32°C° 0 mm 8 m/s 754 mmHg 57%
    19:00 +31°C° 0 mm 8 m/s 754 mmHg 63%
    20:00 +29°C° 0 mm 8 m/s 754 mmHg 69%
    21:00 +29°C° 0 mm 8 m/s 754 mmHg 70%
    22:00 +29°C° 0 mm 8 m/s 754 mmHg 72%
    23:00 +28°C° 0 mm 8 m/s 755 mmHg 73%

    Depois de amanhã, 19 Agosto, Domingo

    Tempo Temperatura Precipitação Vento Pressão Humidade
    00:00 +28°C° 0 mm 8 m/s 754 mmHg 73%
    01:00 +28°C° 0 mm 8 m/s 754 mmHg 74%
    02:00 +28°C° 0 mm 8 m/s 754 mmHg 75%
    03:00 +28°C° 0 mm 8 m/s 753 mmHg 76%
    04:00 +28°C° 0 mm 8 m/s 753 mmHg 78%
    05:00 +27°C° 0 mm 8 m/s 753 mmHg 80%
    06:00 +28°C° 0 mm 8 m/s 753 mmHg 75%
    07:00 +29°C° 0 mm 8 m/s 753 mmHg 70%
    08:00 +29°C° 0 mm 8 m/s 753 mmHg 65%
    09:00 +32°C° 0 mm 8 m/s 753 mmHg 58%
    10:00 +33°C° 0 mm 8 m/s 754 mmHg 50%
    11:00 +35°C° 0 mm 8 m/s 754 mmHg 42%
    12:00 +35°C° 0 mm 9 m/s 753 mmHg 41%
    13:00 +35°C° 0 mm 9 m/s 753 mmHg 39%
    14:00 +37°C° 0 mm 9 m/s 753 mmHg 37%
    15:00 +35°C° 0 mm 9 m/s 753 mmHg 42%
    16:00 +34°C° 0 mm 9 m/s 753 mmHg 47%
    17:00 +33°C° 0 mm 9 m/s 752 mmHg 51%
    18:00 +33°C° 0 mm 8 m/s 753 mmHg 50%
    19:00 +32°C° 0 mm 8 m/s 753 mmHg 49%
    20:00 +30°C° 0 mm 7 m/s 753 mmHg 48%
    21:00 +30°C° 0 mm 7 m/s 753 mmHg 50%
    22:00 +30°C° 0 mm 7 m/s 753 mmHg 53%
    23:00 +29°C° 0 mm 7 m/s 753 mmHg 56%

    20 Agosto, Segunda-feira

    Tempo Temperatura Precipitação Vento Pressão Humidade
    00:00 +29°C° 0 mm 8 m/s 753 mmHg 60%
    01:00 +29°C° 0 mm 8 m/s 752 mmHg 64%
    02:00 +28°C° 0 mm 8 m/s 752 mmHg 68%
    03:00 +28°C° 0 mm 8 m/s 752 mmHg 70%
    04:00 +28°C° 0 mm 8 m/s 752 mmHg 71%
    05:00 +28°C° 0 mm 8 m/s 751 mmHg 73%
    06:00 +28°C° 0 mm 8 m/s 751 mmHg 68%
    07:00 +29°C° 0 mm 8 m/s 752 mmHg 62%
    08:00 +31°C° 0 mm 8 m/s 752 mmHg 57%
    09:00 +32°C° 0 mm 8 m/s 752 mmHg 50%
    10:00 +34°C° 0 mm 8 m/s 752 mmHg 43%
    11:00 +35°C° 0 mm 8 m/s 753 mmHg 36%
    12:00 +37°C° 0 mm 8 m/s 753 mmHg 36%
    13:00 +37°C° 0 mm 8 m/s 752 mmHg 36%
    14:00 +37°C° 0 mm 8 m/s 752 mmHg 35%
    15:00 +35°C° 0 mm 8 m/s 752 mmHg 38%
    16:00 +35°C° 0 mm 8 m/s 752 mmHg 42%
    17:00 +34°C° 0 mm 8 m/s 752 mmHg 45%
    18:00 +33°C° 0 mm 7 m/s 752 mmHg 48%
    19:00 +32°C° 0 mm 7 m/s 752 mmHg 52%
    20:00 +30°C° 0 mm 7 m/s 752 mmHg 55%
    21:00 +30°C° 0 mm 7 m/s 753 mmHg 54%
    22:00 +30°C° 0 mm 7 m/s 753 mmHg 53%
    23:00 +29°C° 0 mm 6 m/s 753 mmHg 52%

    21 Agosto, Terça-feira

    Tempo Temperatura Precipitação Vento Pressão Humidade
    00:00 +29°C° 0 mm 6 m/s 753 mmHg 56%
    01:00 +29°C° 0 mm 6 m/s 753 mmHg 60%
    02:00 +28°C° 0 mm 6 m/s 753 mmHg 64%
    03:00 +28°C° 0 mm 6 m/s 753 mmHg 67%
    04:00 +28°C° 0 mm 5 m/s 753 mmHg 69%
    05:00 +27°C° 0 mm 5 m/s 753 mmHg 72%
    06:00 +28°C° 0 mm 5 m/s 753 mmHg 67%
    07:00 +29°C° 0 mm 5 m/s 754 mmHg 63%
    08:00 +29°C° 0 mm 5 m/s 754 mmHg 59%
    09:00 +32°C° 0 mm 6 m/s 754 mmHg 50%
    10:00 +33°C° 0 mm 6 m/s 754 mmHg 42%
    11:00 +35°C° 0 mm 6 m/s 755 mmHg 33%
    12:00 +35°C° 0 mm 6 m/s 754 mmHg 34%
    13:00 +36°C° 0 mm 6 m/s 754 mmHg 34%
    14:00 +36°C° 0 mm 7 m/s 754 mmHg 35%
    15:00 +35°C° 0 mm 7 m/s 754 mmHg 39%
    16:00 +34°C° 0 mm 7 m/s 754 mmHg 44%
    17:00 +34°C° 0 mm 7 m/s 754 mmHg 48%
    18:00 +33°C° 0 mm 6 m/s 754 mmHg 52%
    19:00 +32°C° 0 mm 6 m/s 754 mmHg 56%
    20:00 +30°C° 0 mm 6 m/s 754 mmHg 60%
    21:00 +29°C° 0 mm 5 m/s 754 mmHg 60%
    22:00 +29°C° 0 mm 5 m/s 755 mmHg 60%
    23:00 +29°C° 0 mm 5 m/s 755 mmHg 60%

    22 Agosto, Quarta-feira

    Tempo Temperatura Precipitação Vento Pressão Humidade
    00:00 +28°C° 0 mm 5 m/s 755 mmHg 61%
    01:00 +28°C° 0 mm 5 m/s 754 mmHg 62%
    02:00 +28°C° 0 mm 4 m/s 754 mmHg 63%
    03:00 +27°C° 0 mm 4 m/s 754 mmHg 63%
    04:00 +27°C° 0 mm 4 m/s 754 mmHg 63%
    05:00 +27°C° 0 mm 4 m/s 754 mmHg 63%
    06:00 +28°C° 0 mm 4 m/s 755 mmHg 60%
    07:00 +28°C° 0 mm 4 m/s 755 mmHg 58%
    08:00 +29°C° 0 mm 4 m/s 755 mmHg 55%
    09:00 +30°C° 0 mm 4 m/s 755 mmHg 51%
    10:00 +32°C° 0 mm 4 m/s 755 mmHg 46%
    11:00 +33°C° 0 mm 4 m/s 756 mmHg 42%
    12:00 +34°C° 0 mm 4 m/s 755 mmHg 41%
    13:00 +34°C° 0 mm 5 m/s 755 mmHg 39%
    14:00 +35°C° 0 mm 5 m/s 755 mmHg 38%
    15:00 +34°C° 0 mm 5 m/s 755 mmHg 40%
    16:00 +34°C° 0 mm 6 m/s 755 mmHg 43%
    17:00 +33°C° 0 mm 6 m/s 754 mmHg 45%
    18:00 +32°C° 0 mm 6 m/s 755 mmHg 50%
    19:00 +30°C° 0 mm 5 m/s 755 mmHg 54%
    20:00 +29°C° 0 mm 5 m/s 755 mmHg 58%
    21:00 +29°C° 0 mm 5 m/s 755 mmHg 60%
    22:00 +29°C° 0 mm 5 m/s 755 mmHg 62%
    23:00 +28°C° 0 mm 4 m/s 755 mmHg 63%
    Mostrar mais